WEINA 1B (43279 NORAD) Tracking and Keplerian Element Data

This shows tracking and keplerian element data for the satellite.

Feedback or suggestion? Click here.




ElementValue
Catalog43279
NameWEINA 1B
Epoch Orbit33520
Epoch Day35.13978201
Epoch Year2025
RAAN292.7523
Inclination63.3986
Eccentricity0.0230983
Argument of Perigee6.4596
Mean Anonmoly353.9319
Mean Motion13.45316458
Decay Rate8E-08
L11 43279U 18034E 25035.13978201 .00000008 00000+0 14200-3 0 9994
L22 43279 63.3986 292.7523 0230983 6.4596 353.9319 13.45316458335203



Live tracking and technical data element details for WEINA 1B (NORAD 43279). WEINA 1B can be tracked NOW for your location showing map with azimuth and elevation plus other details from your city location.







IsCatalogInMostPopularTable: catalog: 43279, numindb: 372
Update: records affected: 1



GetName: 43279 WEINA 1B

Hit Count: updated at: Thu, 22 May 2025 03:32:27 GMT